User: anonymous   Login
Location: Bowman Observatory
(41.0326°N, 73.6210°W)
Time: 15:11:49
(UTC-05:00)
Language:

Cosmos 2297 - Orbit

View from above orbital plane
View from above orbital plane
View from above satellite
View from above satellite

Ground track
Ground track

The orbit data is extracted from the following two-line orbital elements,

1 23404U 94077A   17017.82891891 -.00000013 +00000-0 +18512-4 0  9998
2 23404 071.0109 247.7300 0014688 009.9962 350.1449 14.13476092142783
Epoch (UTC): 17 January 2017 19:53:38
Eccentricity: 0.0014688
inclination: 71.0109°
perigee height: 837 km
apogee height: 858 km
right ascension of ascending node: 247.7300°
argument of perigee: 9.9962°
revolutions per day: 14.13476092
mean anomaly at epoch: 350.1449°
orbit number at epoch: 14278

The dashed part of the orbit path shows where the satellite is in the earth's shadow,  

DLR